EST,Max TemperatureF,Mean TemperatureF,Min TemperatureF,Max Dew PointF,MeanDew PointF,Min DewpointF,Max Humidity, Mean Humidity, Min Humidity, Max Sea Level PressureIn, Mean Sea Level PressureIn, Min Sea Level PressureIn, Max VisibilityMiles, Mean VisibilityMiles, Min VisibilityMiles, Max Wind SpeedMPH, Mean Wind SpeedMPH, Max Gust SpeedMPH,PrecipitationIn, CloudCover, Events, WindDirDegrees
2012-12-1,92,48,35,47,40,32,88,73,58,30.20,30.14,30.05,10,8,5,18,8,25,0.00,2,,180
2012-12-2,59,56,52,55,51,43,99,84,60,30.11,30.03,29.98,10,7,0,20,13,25,0.15,8,Fog-Rain,210
2012-12-3,92,60,54,61,56,53,100,90,73,30.11,30.05,29.98,10,5,0,17,8,23,0.01,6,Fog,190
2012-12-4,92,49,39,53,45,35,94,84,75,30.21,30.07,29.98,10,9,2,16,11,22,0.08,5,Rain,263
2012-12-5,39,34,29,35,28,24,86,74,60,30.40,30.32,30.21,10,10,10,12,7,,0.00,0,,48
2012-12-6,45,36,27,36,29,23,85,78,68,30.28,30.11,29.97,10,10,7,12,7,,0.00,2,,144
2012-12-7,92,43,40,46,42,36,97,92,79,29.98,29.91,29.83,10,5,2,9,5,,0.17,8,Rain,146
2012-12-8,92,41,37,45,41,35,99,94,85,30.08,29.93,29.82,10,4,0,14,5,20,0.09,8,Fog-Snow,328
2012-12-9,92,44,37,50,41,34,99,95,88,30.08,29.87,29.68,7,3,0,18,11,24,0.37,8,Fog-Rain-Snow,111
2012-12-10,92,38,30,45,31,27,99,93,85,29.92,29.78,29.71,10,6,2,22,15,28,0.24,8,Snow,288
2012-12-11,92,31,29,29,25,22,96,80,66,30.20,30.06,29.93,10,6,2,15,11,21,0.00,5,Snow,248
2012-12-12,92,32,24,28,24,21,87,75,56,30.37,30.32,30.21,10,5,2,10,7,,0.00,0,Snow,193
2012-12-13,92,34,26,29,25,21,83,71,53,30.39,30.31,30.20,10,6,2,14,7,17,0.00,0,Snow,185
2012-12-14,92,38,30,32,28,24,80,68,53,30.26,30.20,30.12,10,7,2,10,6,,0.00,0,Snow,192
2012-12-15,92,44,39,47,37,28,90,76,61,30.13,29.90,29.69,10,9,5,26,10,31,0.02,6,Rain,169
2012-12-16,92,46,40,49,45,38,95,89,78,29.75,29.69,29.63,10,7,4,17,11,20,0.00,8,,244
2012-12-17,92,38,36,38,36,34,95,90,85,29.74,29.69,29.59,10,5,2,8,5,,0.00,8,Rain,354
2012-12-18,92,38,35,35,33,31,95,87,77,29.83,29.74,29.67,10,4,2,18,8,23,0.00,7,Rain-Snow,235
2012-12-19,92,38,34,36,34,32,93,84,78,30.06,29.97,29.73,10,5,3,21,11,29,0.00,7,Rain-Snow,262
2012-12-20,52,46,40,47,41,35,96,86,79,29.91,29.53,29.15,10,6,1,30,15,41,0.51,8,Rain,123
2012-12-21,,,,,,,,,,,,,,,,,,,,,,
2012-12-22,,,,,,,,,,,,,,,,,,,,,,
2012-12-23,,,,,,,,,,,,,,,,,,,,,,
2012-12-24,,,,,,,,,,,,,,,,,,,,,,
2012-12-25,,,,,,,,,,,,,,,,,,,,,,
2012-12-26,,,,,,,,,,,,,,,,,,,,,,
2012-12-27,,,,,,,,,,,,,,,,,,,,,,
2012-12-28,,,,,,,,,,,,,,,,,,,,,,
2012-12-29,,,,,,,,,,,,,,,,,,,,,,
2012-12-30,,,,,,,,,,,,,,,,,,,,,,
2012-12-31,,,,,,,,,,,,,,,,,,,,,,